When you browse on this site, cookies collect data to enhance your experience and personalize the content and advertising you see.
Visit our Privacy Policy to learn more. By continuing to use the site, you agree to this use of cookies and data.
  • In Romania
  • List of Countries
  • For 7 days
  • Water Temperature
  • Satellite Maps
  • Weather Map
  • Weather Widgets
  • user-avatar
    Login

    Hourly Weather Nizhnebalkovskiy

    Today, 18 November, Sunday

    Time Temperature Precipitation Wind Pressure Humidity
    00:00 +3°C° 0.2 mm 0 mps 735 mmHg 92%
    01:00 +3°C° 0.2 mm 0 mps 735 mmHg 91%
    02:00 +3°C° 0.2 mm 0 mps 735 mmHg 91%
    03:00 +3°C° 0.2 mm 0 mps 735 mmHg 91%
    04:00 +3°C° 0.1 mm 0 mps 735 mmHg 91%
    05:00 +3°C° 0.1 mm 0 mps 735 mmHg 90%
    06:00 +3°C° 0.1 mm 0 mps 735 mmHg 90%
    07:00 +4°C° 0.1 mm 0 mps 734 mmHg 89%
    08:00 +4°C° 0.1 mm 0 mps 734 mmHg 88%
    09:00 +5°C° 0.1 mm 0 mps 734 mmHg 87%
    10:00 +6°C° 0 mm 0 mps 734 mmHg 84%
    11:00 +7°C° 0 mm 0 mps 734 mmHg 80%
    12:00 +8°C° 0 mm 0 mps 734 mmHg 77%
    13:00 +9°C° 0 mm 1 mps 733 mmHg 77%
    14:00 +9°C° 0 mm 1 mps 733 mmHg 78%
    15:00 +9°C° 0 mm 1 mps 733 mmHg 78%
    16:00 +8°C° 0 mm 1 mps 734 mmHg 82%
    17:00 +7°C° 0 mm 1 mps 734 mmHg 86%
    18:00 +7°C° 0 mm 1 mps 734 mmHg 90%
    19:00 +6°C° 0 mm 1 mps 734 mmHg 91%
    20:00 +6°C° 0 mm 1 mps 734 mmHg 91%
    21:00 +6°C° 0 mm 1 mps 734 mmHg 92%
    22:00 +5°C° 0 mm 1 mps 734 mmHg 93%
    23:00 +5°C° 0 mm 1 mps 734 mmHg 93%

    Tomorrow, 19 November, Monday

    Time Temperature Precipitation Wind Pressure Humidity
    00:00 +5°C° 0 mm 1 mps 734 mmHg 94%
    01:00 +4°C° 0 mm 2 mps 734 mmHg 93%
    02:00 +4°C° 0 mm 2 mps 734 mmHg 92%
    03:00 +4°C° 0 mm 2 mps 734 mmHg 92%
    04:00 +4°C° 0 mm 2 mps 734 mmHg 91%
    05:00 +4°C° 0 mm 2 mps 733 mmHg 90%
    06:00 +3°C° 0 mm 3 mps 733 mmHg 89%
    07:00 +3°C° 0 mm 3 mps 733 mmHg 86%
    08:00 +4°C° 0 mm 3 mps 733 mmHg 84%
    09:00 +4°C° 0 mm 4 mps 733 mmHg 81%
    10:00 +5°C° 0 mm 4 mps 733 mmHg 78%
    11:00 +6°C° 0 mm 5 mps 732 mmHg 74%
    12:00 +7°C° 0 mm 5 mps 732 mmHg 71%
    13:00 +7°C° 0 mm 5 mps 732 mmHg 71%
    14:00 +7°C° 0 mm 5 mps 732 mmHg 72%
    15:00 +7°C° 0 mm 5 mps 731 mmHg 73%
    16:00 +6°C° 0 mm 5 mps 731 mmHg 76%
    17:00 +5°C° 0 mm 5 mps 731 mmHg 80%
    18:00 +4°C° 0 mm 4 mps 732 mmHg 84%
    19:00 +4°C° 0 mm 4 mps 731 mmHg 84%
    20:00 +4°C° 0 mm 4 mps 731 mmHg 84%
    21:00 +4°C° 0 mm 4 mps 731 mmHg 84%
    22:00 +4°C° 0.1 mm 4 mps 731 mmHg 85%
    23:00 +4°C° 0.1 mm 4 mps 731 mmHg 85%

    Day after tomorrow, 20 November, Tuesday

    Time Temperature Precipitation Wind Pressure Humidity
    00:00 +4°C° 0.1 mm 4 mps 731 mmHg 85%
    01:00 +4°C° 0.1 mm 3 mps 731 mmHg 87%
    02:00 +4°C° 0.1 mm 3 mps 731 mmHg 88%
    03:00 +4°C° 0.1 mm 3 mps 731 mmHg 89%
    04:00 +4°C° 0.3 mm 3 mps 731 mmHg 89%
    05:00 +5°C° 0.3 mm 2 mps 731 mmHg 89%
    06:00 +5°C° 0.3 mm 2 mps 730 mmHg 89%
    07:00 +5°C° 0.3 mm 2 mps 730 mmHg 89%
    08:00 +6°C° 0.3 mm 2 mps 730 mmHg 88%
    09:00 +7°C° 0.3 mm 1 mps 730 mmHg 87%
    10:00 +7°C° 1 mm 1 mps 730 mmHg 87%
    11:00 +8°C° 1 mm 1 mps 730 mmHg 86%
    12:00 +8°C° 1 mm 1 mps 730 mmHg 85%
    13:00 +8°C° 0.3 mm 2 mps 730 mmHg 84%
    14:00 +8°C° 0.3 mm 2 mps 730 mmHg 84%
    15:00 +8°C° 0.3 mm 2 mps 730 mmHg 83%
    16:00 +8°C° 0.1 mm 2 mps 730 mmHg 85%
    17:00 +7°C° 0.1 mm 2 mps 730 mmHg 86%
    18:00 +8°C° 0.1 mm 1 mps 730 mmHg 88%
    19:00 +8°C° 0.1 mm 1 mps 730 mmHg 88%
    20:00 +8°C° 0.1 mm 1 mps 730 mmHg 89%
    21:00 +7°C° 0.1 mm 1 mps 730 mmHg 90%
    22:00 +7°C° 0.1 mm 1 mps 730 mmHg 90%
    23:00 +7°C° 0.1 mm 1 mps 731 mmHg 89%

    21 November, Wednesday

    Time Temperature Precipitation Wind Pressure Humidity
    00:00 +7°C° 0.1 mm 1 mps 731 mmHg 89%
    01:00 +7°C° 0.1 mm 1 mps 731 mmHg 89%
    02:00 +7°C° 0.1 mm 1 mps 731 mmHg 89%
    03:00 +6°C° 0.1 mm 2 mps 731 mmHg 90%
    04:00 +6°C° 0 mm 2 mps 731 mmHg 90%
    05:00 +6°C° 0 mm 2 mps 731 mmHg 89%
    06:00 +6°C° 0 mm 2 mps 731 mmHg 89%
    07:00 +6°C° 0 mm 2 mps 731 mmHg 86%
    08:00 +7°C° 0 mm 2 mps 731 mmHg 84%
    09:00 +7°C° 0 mm 2 mps 731 mmHg 81%
    10:00 +8°C° 0 mm 2 mps 731 mmHg 77%
    11:00 +9°C° 0 mm 3 mps 730 mmHg 73%
    12:00 +9°C° 0 mm 3 mps 730 mmHg 69%
    13:00 +9°C° 0 mm 2 mps 730 mmHg 70%
    14:00 +9°C° 0 mm 2 mps 730 mmHg 70%
    15:00 +9°C° 0 mm 2 mps 729 mmHg 71%
    16:00 +9°C° 0 mm 2 mps 729 mmHg 75%
    17:00 +9°C° 0 mm 1 mps 729 mmHg 80%
    18:00 +8°C° 0 mm 1 mps 730 mmHg 84%
    19:00 +8°C° 0 mm 1 mps 729 mmHg 85%
    20:00 +8°C° 0 mm 1 mps 729 mmHg 86%
    21:00 +8°C° 0 mm 1 mps 729 mmHg 87%
    22:00 +7°C° 0 mm 1 mps 729 mmHg 87%
    23:00 +7°C° 0 mm 1 mps 729 mmHg 87%

    22 November, Thursday

    Time Temperature Precipitation Wind Pressure Humidity
    00:00 +7°C° 0 mm 1 mps 728 mmHg 87%
    01:00 +7°C° 0 mm 1 mps 728 mmHg 88%
    02:00 +7°C° 0 mm 1 mps 728 mmHg 89%
    03:00 +7°C° 0 mm 1 mps 728 mmHg 89%
    04:00 +5°C° 0.3 mm 2 mps 728 mmHg 90%
    05:00 +5°C° 0.3 mm 2 mps 728 mmHg 91%
    06:00 +5°C° 0.3 mm 2 mps 728 mmHg 92%
    07:00 +5°C° 0.4 mm 2 mps 728 mmHg 92%
    08:00 +5°C° 0.4 mm 2 mps 728 mmHg 91%
    09:00 +5°C° 0.4 mm 2 mps 728 mmHg 91%
    10:00 +5°C° 0.1 mm 2 mps 728 mmHg 90%
    11:00 +4°C° 0.1 mm 3 mps 728 mmHg 88%
    12:00 +4°C° 0.1 mm 3 mps 727 mmHg 87%
    13:00 +4°C° 0.1 mm 3 mps 727 mmHg 87%
    14:00 +5°C° 0.1 mm 2 mps 727 mmHg 87%
    15:00 +5°C° 0.1 mm 2 mps 727 mmHg 86%
    16:00 +5°C° 0.3 mm 2 mps 728 mmHg 87%
    17:00 +5°C° 0.3 mm 2 mps 728 mmHg 88%
    18:00 +4°C° 0.3 mm 2 mps 728 mmHg 89%
    19:00 +4°C° 0.3 mm 2 mps 728 mmHg 89%
    20:00 +5°C° 0.3 mm 1 mps 729 mmHg 89%
    21:00 +5°C° 0.3 mm 1 mps 729 mmHg 89%
    22:00 +5°C° 0.1 mm 1 mps 729 mmHg 88%
    23:00 +4°C° 0.1 mm 1 mps 729 mmHg 88%

    23 November, Friday

    Time Temperature Precipitation Wind Pressure Humidity
    00:00 +4°C° 0.1 mm 1 mps 729 mmHg 88%
    01:00 +4°C° 0 mm 1 mps 729 mmHg 87%
    02:00 +4°C° 0 mm 1 mps 729 mmHg 87%
    03:00 +4°C° 0 mm 1 mps 729 mmHg 87%
    04:00 +3°C° 0 mm 1 mps 730 mmHg 88%
    05:00 +3°C° 0 mm 1 mps 730 mmHg 89%
    06:00 +2°C° 0 mm 1 mps 730 mmHg 90%
    07:00 +2°C° 0 mm 1 mps 731 mmHg 87%
    08:00 +3°C° 0 mm 1 mps 731 mmHg 85%
    09:00 +3°C° 0 mm 1 mps 732 mmHg 83%
    10:00 +4°C° 0 mm 1 mps 732 mmHg 78%
    11:00 +4°C° 0 mm 2 mps 732 mmHg 73%
    12:00 +5°C° 0 mm 2 mps 732 mmHg 67%
    13:00 +5°C° 0 mm 2 mps 732 mmHg 65%
    14:00 +5°C° 0 mm 2 mps 733 mmHg 62%
    15:00 +5°C° 0 mm 2 mps 733 mmHg 60%
    16:00 +4°C° 0 mm 2 mps 733 mmHg 64%
    17:00 +3°C° 0 mm 2 mps 734 mmHg 67%
    18:00 +1°C° 0 mm 2 mps 735 mmHg 71%
    19:00 +1°C° 0 mm 2 mps 735 mmHg 73%
    20:00 +1°C° 0 mm 2 mps 735 mmHg 74%
    21:00 -1°C° 0 mm 2 mps 735 mmHg 76%
    22:00 -1°C° 0 mm 2 mps 736 mmHg 76%
    23:00 -1°C° 0 mm 2 mps 736 mmHg 77%
    Show more